COSMOS 1275 DEB, 42119

Orbit data source: Space-Track

COSMOS 1275 DEB, 42119 is space debris in LEO originally from a launch on Thu, 04 Jun 1981 UTC launched from the Plesetsk Missile And Space Complex (PKMTR). Debris objects in space refer to the collection of defunct objects orbiting the Earth. Examples of debris include non-operational satellites, rocket bodies, and fragments generated from explosions, collisions, or faulty payload assembly.

Loading next visibility...
Identifier
42119, 1981-053QF
Orbit
LEO
Last TLE update
9 months ago
Origin
Manufacturer
Unknown
Mission
Spacecraft
Bus & Motor
Unknown
Mass
Unknown
Launch date (UTC)
1981-06-04 (44 years ago)
Launch vehicle
Unknown
Launch site
Plesetsk Missile And Space Complex (PKMTR)
Object type
Payload
Rocket body
Debris
Shape & HBR
Unknown
Radar Cross Section
Small (<0.1 m²)

Expand to show TLE details & history

TLE from 9 months ago
0 COSMOS 1275 DEB
1 42119U 81053QF  24297.34420029  .00001497  00000-0  12675-2 0  9996
2 42119  83.1749 321.8065 0047362  34.3820 326.0392 13.86426528 23801
Epoch: 2024-10-23T08:15Z
TLE epoch observation values (Epoch: 2024-10-23T08:15:38.905Z)
Latitude
0.00001°
Longitude
165.65089°
Altitude
915.396 km
Speed
7.409 km/s
True Right ascension
21h 27m 13s
True Declination
0° 00' 00"
Sunlit
Object was in daylight at epoch
Visualization orbit readout
Latitude
37.43059°
Longitude
144.08873°
Altitude
974.914 km
Speed
7.352 km/s
Apparent Right ascension
21h 57m 53s
Apparent Declination
2° 22' 41"
Sunlit
Object is in daylight
Visualization observer readout
Local Sidereal Time
12:20:26
Azimuth
46.478° ENE
Elevation
-36.597°
Doppler factor
1
Orbital elements
Apogee altitude
972.957 km
Perigee altitude
903.653 km
Semi-major axis
7,316.442 km
Eccentricity
0.00474
Inclination
83.1749°
RAAN
321.8065°
Arg. of periapsis
34.382°
True anomaly
325.73452°
Mean anomaly
326.0392°
Eccentric anomaly
325.88701°
Mean motion
3.46811 °/min
Orbital period
103.8 mins
BSTAR
0.0012675
Loading maneuver chart data...
Loading SW <> Apogee altitude chart data...
Loading historical data...
Loading historical data...
Loading historical data...
Loading historical data...
Loading historical data...
Loading historical data...
Loading historical data...
|